This is the latest recevied weather packets stored in our database for station/object ZL1CTS-13. If no packets are shown the sender has not sent any weather packets the latest 10 day(s).
| Time | Temp. | Humidity | Pressure | Rain* | Wind** | Luminosity | Snow |
|---|---|---|---|---|---|---|---|
| 1787931904 | 13.89° C | 99% | 1004.4 hPa | 7.87 mm | - | - | - |
| 1787931604 | 13.89° C | 99% | 1004.4 hPa | 9.14 mm | - | - | - |
| 1787931304 | 13.89° C | 99% | 1004.5 hPa | 8.38 mm | - | - | - |
| 1787931004 | 13.89° C | 99% | 1004.4 hPa | 8.38 mm | - | - | - |
| 1787930704 | 13.89° C | 99% | 1004.5 hPa | 8.89 mm | - | - | - |
| 1787930404 | 13.89° C | 99% | 1004.5 hPa | 8.38 mm | - | - | - |
| 1787930113 | 13.89° C | 99% | 1004.7 hPa | 8.13 mm | - | - | - |
| 1787929804 | 13.89° C | 99% | 1004.7 hPa | 7.37 mm | - | - | - |
| 1787929504 | 13.89° C | 99% | 1004.7 hPa | 6.35 mm | - | - | - |
| 1787929206 | 13.89° C | 99% | 1004.8 hPa | 5.84 mm | - | - | - |
| 1787928904 | 14.44° C | 99% | 1004.7 hPa | 5.33 mm | - | - | - |
| 1787928604 | 14.44° C | 99% | 1004.8 hPa | 5.84 mm | - | - | - |
| 1787928304 | 15° C | 99% | 1005 hPa | 3.81 mm | - | - | - |
| 1787928004 | 15° C | 99% | 1004.9 hPa | 3.05 mm | - | - | - |
| 1787927704 | 15° C | 99% | 1004.9 hPa | 3.3 mm | - | - | - |
| 1787927404 | 15° C | 99% | 1005 hPa | 3.3 mm | - | - | - |
| 1787927106 | 15° C | 99% | 1005 hPa | 3.05 mm | - | - | - |
| 1787926815 | 15° C | 99% | 1005.1 hPa | 3.3 mm | - | - | - |
| 1787926506 | 15° C | 99% | 1005.2 hPa | 3.3 mm | - | - | - |
| 1787926204 | 15° C | 99% | 1005.3 hPa | 3.3 mm | - | - | - |
| 1787925913 | 15° C | 99% | 1005.4 hPa | 3.3 mm | - | - | - |
| 1787925604 | 15° C | 99% | 1005.6 hPa | 3.3 mm | - | - | - |
| 1787925306 | 15° C | 99% | 1005.6 hPa | 3.05 mm | - | - | - |
| 1787925004 | 15° C | 99% | 1005.8 hPa | 2.29 mm | - | - | - |
| 1787924705 | 15° C | 99% | 1005.9 hPa | 2.03 mm | - | - | - |
* Rain latest hour (hover to see other rain measurements)
** Current wind speed in m/s (hover to see current wind gust speed)